Location: Caltech
(34.1382°N, 118.1253°W)
Time: 13:08:38
(UTC-07:00)

SL-08 R/B - Visible Passes

Search period start: 29 August 2014 00:00
Search period end: 08 September 2014 00:00
Orbit: 675 x 743 km, 98.1° (Epoch: 29 August)

Date Brightness Start Highest point End Pass type
(mag) Time Alt. Az. Time Alt. Az. Time Alt. Az.
29 Aug 6.0 02:55:14 14° N 02:55:14 14° N 02:55:59 10° N visible
30 Aug 5.9 03:40:50 11° NNW 03:40:50 11° NNW 03:40:59 10° NNW visible
31 Aug 6.1 02:47:24 12° N 02:47:24 12° N 02:47:50 10° N visible
01 Sep 6.0 03:33:00 10° NNW 03:33:00 10° NNW 03:33:01 10° NNW visible
02 Sep 6.3 02:39:34 10° N 02:39:34 10° N 02:39:39 10° N visible
